• MPC Preparation (Info)

  • MPEC 1997-N14 : 1997 CV29

    The following Minor Planet Electronic Circular may be linked-to from your own Web pages, but must not otherwise be redistributed electronically.

    A form allowing access to any MPEC is at the bottom of this page.


    Read MPEC 1997-N13 Read MPEC 1997-N15


    M.P.E.C. 1997-N14                                Issued 1997 July 7, 20:40 UT
    
         The Minor Planet Electronic Circulars contain information on unusual
             minor planets and routine data on comets.  They are published
       on behalf of Commission 20 of the International Astronomical Union by the
              Minor Planet Center, Smithsonian Astrophysical Observatory,
                              Cambridge, MA 02138, U.S.A.
    
                 BMARSDEN@CFA.HARVARD.EDU or GWILLIAMS@CFA.HARVARD.EDU
                     URL http://cfa-www.harvard.edu/cfa/ps/mpc.html
    
                                       1997 CV29
    
    Observations:
         J97C29V* C1997 02 06.46982 09 20 57.12 +17 52 31.8          22.8 R      568
         J97C29V  C1997 02 06.50517 09 20 56.92 +17 52 32.5                      568
         J97C29V  C1997 02 06.54095 09 20 56.78 +17 52 33.8                      568
         J97C29V  C1997 02 07.43281 09 20 52.20 +17 52 56.3                      568
         J97C29V  C1997 02 07.47111 09 20 52.00 +17 52 57.2                      568
         J97C29V  C1997 02 09.38100 09 20 42.22 +17 53 45.5                      568
         J97C29V  C1997 02 09.41839 09 20 42.06 +17 53 46.6                      568
         J97C29V  C1997 02 09.45591 09 20 41.82 +17 53 47.6                      568
         J97C29V  C1997 02 09.54990 09 20 41.38 +17 53 50.0                      568
    
    Observer details:
    568 Mauna Kea.  Observers J. Chen, C. Trujillo, D. Jewitt, J. X. Luu.  2.2-m
        University of Hawaii reflector + CCD.
    
    Orbital elements:
    1997 CV29
    Eccentricity assumed
    Epoch 1997 Feb. 1.0 TT = JDT 2450480.5                  Williams
    M 359.98209              (2000.0)            P               Q
    n   0.00340982     Peri.   16.14474     -0.73182924     -0.67108648
    a  43.7168182      Node   121.08854     +0.60893395     -0.72208153
    e   0.0829859      Incl.    7.96140     +0.30598271     -0.16805118
    P 289.05           H    7.0           G   0.15
    From 9 observations 1997 Feb. 6-9.
    
    Gareth V. Williams           (C) Copyright 1997 MPC           M.P.E.C. 1997-N14
    

    Read MPEC 1997-N13 Read MPEC 1997-N15


    MPEC number:

    Enter an MPEC number in one of the following forms:

    • 1997-B01 (the full form)
    • J97B01 (the packed version of the full form)
    • B01 (the abbreviated form)